Time,TemperatureF,DewpointF,PressureIn,WindDirection,WindDirectionDegrees,WindSpeedMPH,WindSpeedGustMPH,Humidity,HourlyPrecipIn,Conditions,Clouds,dailyrainin,SoftwareType,DateUTC
2013-01-16 00:00:00,44.0,35.0,-100.00,North,-999,-999.0,-999.0,71,-99.99,,,0.00,,2013-01-16 08:00:00,
2013-01-16 00:52:00,44.0,35.0,-100.00,North,-999,-999.0,-999.0,71,-99.99,,,0.00,,2013-01-16 08:52:00,
2013-01-16 01:00:00,43.0,35.0,-100.00,North,-999,-999.0,-999.0,71,0.00,,,0.00,,2013-01-16 09:00:00,
2013-01-16 01:53:00,43.0,35.0,-100.00,North,-999,-999.0,-999.0,71,0.00,,,0.00,,2013-01-16 09:53:00,
2013-01-16 02:00:00,43.0,35.0,-100.00,North,-999,-999.0,-999.0,71,-99.99,,,-99.99,,2013-01-16 10:00:00,
2013-01-16 02:53:00,43.0,35.0,-100.00,North,-999,-999.0,-999.0,71,-99.99,,,-99.99,,2013-01-16 10:53:00,
2013-01-16 03:00:00,42.0,34.0,-100.00,North,-999,-999.0,-999.0,73,0.00,,,0.00,,2013-01-16 11:00:00,
2013-01-16 03:53:00,42.0,34.0,-100.00,North,-999,-999.0,-999.0,73,0.00,,,0.00,,2013-01-16 11:53:00,
2013-01-16 04:00:00,42.0,34.0,-100.00,North,-999,-999.0,-999.0,75,0.00,,,0.00,,2013-01-16 12:00:00,
2013-01-16 04:53:00,42.0,34.0,-100.00,North,-999,-999.0,-999.0,75,0.00,,,0.00,,2013-01-16 12:53:00,
2013-01-16 06:00:00,41.0,34.0,-100.00,North,-999,-999.0,-999.0,76,-99.99,,,0.00,,2013-01-16 14:00:00,
2013-01-16 06:53:00,41.0,34.0,-100.00,North,-999,-999.0,-999.0,76,-99.99,,,0.00,,2013-01-16 14:53:00,
2013-01-16 08:00:00,42.0,35.0,-100.00,North,-999,-999.0,-999.0,76,-99.99,,,0.00,,2013-01-16 16:00:00,
2013-01-16 09:00:00,48.0,34.0,-100.00,North,-999,-999.0,-999.0,58,0.00,,,0.00,,2013-01-16 17:00:00,
2013-01-16 09:53:00,48.0,34.0,-100.00,North,-999,-999.0,-999.0,58,0.00,,,0.00,,2013-01-16 17:53:00,
2013-01-16 10:00:00,53.0,34.0,-100.00,North,-999,-999.0,-999.0,48,0.00,,,0.00,,2013-01-16 18:00:00,
2013-01-16 10:53:00,53.0,34.0,-100.00,North,-999,-999.0,-999.0,48,0.00,,,0.00,,2013-01-16 18:53:00,
2013-01-16 11:00:00,56.0,32.0,-100.00,North,-999,-999.0,-999.0,39,0.00,,,0.00,,2013-01-16 19:00:00,
2013-01-16 11:53:00,56.0,32.0,-100.00,North,-999,-999.0,-999.0,39,0.00,,,0.00,,2013-01-16 19:53:00,
2013-01-16 12:00:00,59.0,33.0,-100.00,North,-999,-999.0,-999.0,37,0.00,,,-99.99,,2013-01-16 20:00:00,
2013-01-16 12:53:00,59.0,33.0,-100.00,North,-999,-999.0,-999.0,37,0.00,,,-99.99,,2013-01-16 20:53:00,
2013-01-16 13:00:00,62.0,32.0,-100.00,North,-999,-999.0,-999.0,33,0.00,,,0.00,,2013-01-16 21:00:00,
2013-01-16 13:53:00,62.0,32.0,-100.00,North,-999,-999.0,-999.0,33,0.00,,,0.00,,2013-01-16 21:53:00,
2013-01-16 14:00:00,63.0,33.0,-100.00,North,-999,-999.0,-999.0,32,0.00,,,0.00,,2013-01-16 22:00:00,
2013-01-16 14:53:00,63.0,33.0,-100.00,North,-999,-999.0,-999.0,32,0.00,,,0.00,,2013-01-16 22:53:00,
2013-01-16 15:00:00,64.0,34.0,-100.00,North,-999,-999.0,-999.0,32,0.00,,,0.00,,2013-01-16 23:00:00,
2013-01-16 15:53:00,64.0,34.0,-100.00,North,-999,-999.0,-999.0,32,0.00,,,0.00,,2013-01-16 23:53:00,
2013-01-16 16:00:00,64.0,34.0,-100.00,North,-999,-999.0,-999.0,32,0.00,,,0.00,,2013-01-17 00:00:00,
2013-01-16 16:52:00,64.0,34.0,-100.00,North,-999,-999.0,-999.0,32,0.00,,,0.00,,2013-01-17 00:52:00,
2013-01-16 17:00:00,61.0,36.0,-100.00,North,-999,-999.0,-999.0,39,0.00,,,0.00,,2013-01-17 01:00:00,
2013-01-16 17:52:00,61.0,36.0,-100.00,North,-999,-999.0,-999.0,39,0.00,,,0.00,,2013-01-17 01:52:00,
2013-01-16 18:00:00,54.0,37.0,-100.00,North,-999,-999.0,-999.0,52,-99.99,,,0.00,,2013-01-17 02:00:00,
2013-01-16 19:00:00,52.0,38.0,-100.00,North,-999,-999.0,-999.0,57,0.00,,,0.00,,2013-01-17 03:00:00,
2013-01-16 19:52:00,52.0,38.0,-100.00,North,-999,-999.0,-999.0,57,0.00,,,0.00,,2013-01-17 03:52:00,
2013-01-16 20:00:00,51.0,38.0,-100.00,North,-999,-999.0,-999.0,63,-99.99,,,0.00,,2013-01-17 04:00:00,
2013-01-16 20:52:00,51.0,38.0,-100.00,North,-999,-999.0,-999.0,63,-99.99,,,0.00,,2013-01-17 04:52:00,
2013-01-16 21:00:00,49.0,38.0,-100.00,North,-999,-999.0,-999.0,66,0.00,,,0.00,,2013-01-17 05:00:00,
2013-01-16 21:53:00,49.0,38.0,-100.00,North,-999,-999.0,-999.0,66,0.00,,,0.00,,2013-01-17 05:53:00,
2013-01-16 22:00:00,48.0,39.0,-100.00,North,-999,-999.0,-999.0,72,0.00,,,0.00,,2013-01-17 06:00:00,
2013-01-16 22:52:00,48.0,39.0,-100.00,North,-999,-999.0,-999.0,72,0.00,,,0.00,,2013-01-17 06:52:00,
2013-01-16 23:00:00,46.0,39.0,-100.00,North,-999,-999.0,-999.0,75,0.00,,,-99.99,,2013-01-17 07:00:00,
2013-01-16 23:52:00,46.0,39.0,-100.00,North,-999,-999.0,-999.0,75,0.00,,,-99.99,,2013-01-17 07:52:00,